FW3849 Weather Reports


time (UTC)temp
C
wind
direction
speed
KPH
gust
KPH
rain 1hr
cm
rain 24hr
cm
rain mn
cm
humidity
%
barometer
mb
20260906073046 26 188 1.6 6.4 0.00 0.00 0.00 50 1010.5
20260906072547 26 188 1.6 4.8 0.00 0.00 0.00 50 1010.6
20260906072042 26 188 1.6 4.8 0.00 0.00 0.00 50 1010.7
20260906071542 26 188 1.6 4.8 0.00 0.00 0.00 50 1010.7
20260906071042 26 188 1.6 4.8 0.00 0.00 0.00 50 1010.9
20260906070541 26 188 1.6 6.4 0.00 0.00 0.00 49 1010.9
20260906070040 26 188 3.2 6.4 0.00 0.00 0.00 49 1010.9
20260906065543 26 189 3.2 6.4 0.00 0.00 0.00 49 1010.9
20260906065040 26 189 3.2 6.4 0.00 0.00 0.00 49 1011.0
20260906064540 26 190 1.6 6.4 0.00 0.00 0.00 49 1011.0
20260906063542 27 190 1.6 6.4 0.00 0.00 0.00 49 1011.1
20260906063037 27 190 3.2 8.0 0.00 0.00 0.00 49 1011.1
20260906062536 27 190 3.2 6.4 0.00 0.00 0.00 48 1011.2
20260906062136 27 190 3.2 6.4 0.00 0.00 0.00 48 1011.1
20260906061536 27 190 1.6 6.4 0.00 0.00 0.00 48 1011.3
20260906061036 27 190 3.2 6.4 0.00 0.00 0.00 48 1011.3
20260906060535 27 190 3.2 4.8 0.00 0.00 0.00 49 1011.3
20260906060044 27 190 3.2 6.4 0.00 0.00 0.00 48 1011.2
20260906055533 27 190 3.2 6.4 0.00 0.00 0.00 48 1011.4
20260906055033 27 190 3.2 6.4 0.00 0.00 0.00 48 1011.4
20260906054533 27 190 3.2 6.4 0.00 0.00 0.00 47 1011.4
20260906053535 27 191 6.4 9.7 0.00 0.00 0.00 47 1011.3
20260906053035 27 172 4.8 9.7 0.00 0.00 0.00 47 1011.3
20260906052536 27 171 4.8 9.7 0.00 0.00 0.00 47 1011.4
20260906052029 27 175 4.8 8.0 0.00 0.00 0.00 47 1011.4
20260906051529 27 187 3.2 8.0 0.00 0.00 0.00 46 1011.3
20260906051028 28 187 3.2 8.0 0.00 0.00 0.00 46 1011.5
20260906050527 28 187 3.2 8.0 0.00 0.00 0.00 46 1011.5
20260906050026 28 185 4.8 9.7 0.00 0.00 0.00 46 1011.5
20260906045528 28 175 4.8 9.7 0.00 0.00 0.00 46 1011.5
20260906045026 28 155 4.8 9.7 0.00 0.00 0.00 46 1011.4
20260906044527 28 177 4.8 9.7 0.00 0.00 0.00 46 1011.4
20260906043525 28 170 3.2 8.0 0.00 0.00 0.00 45 1011.4
20260906043027 28 171 4.8 8.0 0.00 0.00 0.00 45 1011.3
20260906042626 28 171 3.2 8.0 0.00 0.00 0.00 45 1011.3
20260906042025 28 171 3.2 8.0 0.00 0.00 0.00 45 1011.2
20260906041530 28 177 3.2 8.0 0.00 0.00 0.00 45 1011.1
20260906041025 28 179 4.8 8.0 0.00 0.00 0.00 45 1011.2
20260906040524 28 179 4.8 14.5 0.00 0.00 0.00 45 1011.1
20260906040034 28 156 4.8 14.5 0.00 0.00 0.00 44 1011.1
20260906035533 28 207 6.4 11.3 0.00 0.00 0.00 44 1011.2
20260906035024 28 173 4.8 12.9 0.00 0.00 0.00 44 1011.2
20260906034529 29 189 6.4 14.5 0.00 0.00 0.00 44 1011.1
20260906034123 29 191 6.4 14.5 0.00 0.00 0.00 44 1011.1
20260906033523 29 191 8.0 14.5 0.00 0.00 0.00 43 1011.0
20260906033024 29 191 6.4 16.1 0.00 0.00 0.00 43 1010.9
20260906032523 29 196 6.4 16.1 0.00 0.00 0.00 43 1010.9
20260906032026 29 186 8.0 19.3 0.00 0.00 0.00 43 1010.9
20260906031537 29 189 11.3 19.3 0.00 0.00 0.00 43 1010.8
20260906031023 29 193 6.4 16.1 0.00 0.00 0.00 42 1010.8
20260906030522 30 193 9.7 16.1 0.00 0.00 0.00 42 1010.5
20260906030022 30 192 8.0 14.5 0.00 0.00 0.00 42 1010.6
20260906025528 30 187 6.4 16.1 0.00 0.00 0.00 42 1010.5
20260906025024 30 198 8.0 16.1 0.00 0.00 0.00 41 1010.4
20260906024527 30 174 4.8 14.5 0.00 0.00 0.00 41 1010.3
20260906023524 30 198 9.7 17.7 0.00 0.00 0.00 41 1009.9
20260906023023 30 185 11.3 17.7 0.00 0.00 0.00 41 1009.8
20260906022524 30 193 9.7 19.3 0.00 0.00 0.00 40 1009.7
20260906022023 30 190 8.0 20.9 0.00 0.00 0.00 40 1009.5
20260906021523 30 194 12.9 24.1 0.00 0.00 0.00 40 1009.3
20260906021024 30 204 14.5 24.1 0.00 0.00 0.00 40 1009.1
20260906020522 30 197 9.7 24.1 0.00 0.00 0.00 39 1009.1
20260906020022 31 197 14.5 22.5 0.00 0.00 0.00 39 1008.9
20260906015522 31 202 11.3 22.5 0.00 0.00 0.00 38 1008.9
20260906015022 31 198 9.7 20.9 0.00 0.00 0.00 38 1008.9
20260906014525 31 202 11.3 20.9 0.00 0.00 0.00 38 1008.8
20260906013523 31 198 14.5 30.6 0.00 0.00 0.00 37 1008.6
20260906013021 31 165 17.7 30.6 0.00 0.00 0.00 37 1008.6
20260906012520 32 188 19.3 30.6 0.00 0.00 0.00 36 1008.4
20260906012024 32 191 14.5 30.6 0.00 0.00 0.00 35 1008.3
20260906011523 33 183 17.7 29.0 0.00 0.00 0.00 33 1008.3
20260906011020 33 150 16.1 37.0 0.00 0.00 0.00 32 1008.2
20260906010519 35 166 11.3 32.2 0.00 0.00 0.00 27 1008.0
20260906010020 35 174 8.0 17.7 0.00 0.00 0.00 27 1007.7
20260906005518 35 196 6.4 19.3 0.00 0.00 0.00 26 1007.8
20260906005019 35 173 8.0 20.9 0.00 0.00 0.00 26 1007.8
20260906004519 35 162 11.3 20.9 0.00 0.00 0.00 25 1007.7
20260906003519 35 147 6.4 12.9 0.00 0.00 0.00 25 1007.8
20260906003023 35 156 6.4 9.7 0.00 0.00 0.00 24 1007.8
20260906002518 35 169 3.2 14.5 0.00 0.00 0.00 25 1007.8
20260906002018 35 158 6.4 16.1 0.00 0.00 0.00 25 1007.7
20260906001518 35 192 9.7 19.3 0.00 0.00 0.00 25 1007.7
20260906001023 35 160 11.3 19.3 0.00 0.00 0.00 25 1007.6
20260906000518 36 233 11.3 16.1 0.00 0.00 0.00 25 1007.6
20260906000018 36 216 8.0 14.5 0.00 0.00 0.00 25 1007.7
20260905235518 36 208 8.0 16.1 0.00 0.00 0.00 25 1007.7
20260905235024 36 191 8.0 16.1 0.00 0.00 0.00 25 1007.6
20260905234517 35 204 11.3 17.7 0.00 0.00 0.00 25 1007.7
20260905233518 35 209 11.3 19.3 0.00 0.00 0.00 25 1007.7
20260905233018 36 191 11.3 19.3 0.00 0.00 0.00 25 1007.6
20260905232517 35 195 9.7 17.7 0.00 0.00 0.00 25 1007.6
20260905232017 35 197 6.4 17.7 0.00 0.00 0.00 26 1007.5
20260905231522 36 216 11.3 17.7 0.00 0.00 0.00 25 1007.5
20260905231021 35 220 9.7 20.9 0.00 0.00 0.00 26 1007.3
20260905230516 35 203 11.3 20.9 0.00 0.00 0.00 26 1007.5
20260905230016 35 197 12.9 22.5 0.00 0.00 0.00 26 1007.5
20260905225515 35 209 12.9 17.7 0.00 0.00 0.00 26 1007.6
20260905225017 35 204 9.7 17.7 0.00 0.00 0.00 26 1007.7
20260905224519 35 191 11.3 19.3 0.00 0.00 0.00 26 1007.7
20260905224114 35 205 12.9 20.9 0.00 0.00 0.00 27 1007.6
20260905223514 35 215 12.9 20.9 0.00 0.00 0.00 27 1007.7
20260905223015 35 205 11.3 20.9 0.00 0.00 0.00 27 1007.7
20260905222515 35 225 14.5 20.9 0.00 0.00 0.00 27 1007.6
20260905222014 35 214 16.1 22.5 0.00 0.00 0.00 27 1007.7
20260905221514 35 209 14.5 22.5 0.00 0.00 0.00 27 1007.6
20260905221014 35 203 12.9 22.5 0.00 0.00 0.00 27 1007.7
20260905220516 35 224 12.9 20.9 0.00 0.00 0.00 27 1007.6
20260905220014 35 214 12.9 24.1 0.00 0.00 0.00 28 1007.7
20260905215514 35 213 16.1 24.1 0.00 0.00 0.00 27 1007.6
20260905215012 35 205 12.9 20.9 0.00 0.00 0.00 28 1007.7
20260905214512 35 218 12.9 22.5 0.00 0.00 0.00 27 1007.7
20260905213513 36 204 17.7 25.7 0.00 0.00 0.00 27 1007.8
20260905213013 36 211 17.7 25.7 0.00 0.00 0.00 26 1007.8
20260905212512 36 211 9.7 20.9 0.00 0.00 0.00 26 1007.9
20260905212012 36 152 8.0 17.7 0.00 0.00 0.00 24 1008.0
20260905211509 36 72 1.6 17.7 0.00 0.00 0.00 25 1008.1
20260905211010 36 122 6.4 17.7 0.00 0.00 0.00 26 1008.3
20260905210508 36 137 6.4 20.9 0.00 0.00 0.00 25 1008.3
20260905210008 36 78 9.7 20.9 0.00 0.00 0.00 25 1008.3
20260905205509 36 203 4.8 14.5 0.00 0.00 0.00 27 1008.3
20260905205007 35 175 6.4 14.5 0.00 0.00 0.00 27 1008.4
20260905204507 36 198 8.0 12.9 0.00 0.00 0.00 27 1008.3
20260905203504 35 162 3.2 19.3 0.00 0.00 0.00 28 1008.6
20260905203003 35 156 8.0 19.3 0.00 0.00 0.00 29 1008.8
20260905202505 36 162 11.3 19.3 0.00 0.00 0.00 28 1008.9
20260905202003 36 163 8.0 16.1 0.00 0.00 0.00 27 1008.8
20260905201501 36 182 4.8 12.9 0.00 0.00 0.00 27 1009.0
20260905201104 36 21 4.8 9.7 0.00 0.00 0.00 28 1009.0
20260905200601 35 183 4.8 16.1 0.00 0.00 0.00 28 1009.2
20260905200127 35 212 9.7 16.1 0.00 0.00 0.00 27 1009.2
20260905195655 35 187 6.4 16.1 0.00 0.00 0.00 29 1009.3
20260905195053 35 99 9.7 16.1 0.00 0.00 0.00 28 1009.5
20260905194553 35 87 6.4 22.5 0.00 0.00 0.00 30 1009.7
20260905194152 35 168 12.9 22.5 0.00 0.00 0.00 33 1009.8
20260905193552 34 208 8.0 19.3 0.00 0.00 0.00 34 1009.8
20260905193051 34 200 9.7 19.3 0.00 0.00 0.00 34 1010.0
20260905192549 34 186 9.7 17.7 0.00 0.00 0.00 34 1010.1
20260905192048 34 241 3.2 19.3 0.00 0.00 0.00 34 1010.2
20260905191546 34 227 3.2 17.7 0.00 0.00 0.00 34 1010.3
20260905191045 34 196 4.8 17.7 0.00 0.00 0.00 35 1010.3
20260905190542 33 179 1.6 19.3 0.00 0.00 0.00 35 1010.4
20260905190050 33 162 9.7 19.3 0.00 0.00 0.00 36 1010.6
20260905185545 33 272 4.8 16.1 0.00 0.00 0.00 36 1010.6
20260905185039 33 194 9.7 16.1 0.00 0.00 0.00 36 1010.8
20260905184539 33 198 0.0 16.1 0.00 0.00 0.00 36 1010.9
20260905184136 33 204 8.0 20.9 0.00 0.00 0.00 36 1010.8
20260905183536 33 214 6.4 20.9 0.00 0.00 0.00 36 1011.0
20260905183035 33 151 6.4 20.9 0.00 0.00 0.00 37 1011.1
20260905182534 32 196 4.8 20.9 0.00 0.00 0.00 37 1011.2
20260905182037 33 198 9.7 20.9 0.00 0.00 0.00 37 1011.3
20260905181535 33 117 8.0 14.5 0.00 0.00 0.00 37 1011.4
20260905181134 33 61 6.4 17.7 0.00 0.00 0.00 38 1011.4
20260905180531 32 177 6.4 17.7 0.00 0.00 0.00 39 1011.4
20260905180044 32 127 8.0 19.3 0.00 0.00 0.00 40 1011.5
20260905175529 32 171 8.0 19.3 0.00 0.00 0.00 41 1011.5
20260905175029 32 164 3.2 20.9 0.00 0.00 0.00 41 1011.6
20260905174528 32 204 11.3 17.7 0.00 0.00 0.00 41 1011.7
20260905174127 32 230 8.0 24.1 0.00 0.00 0.00 43 1011.7
20260905173528 31 156 8.0 24.1 0.00 0.00 0.00 43 1011.6
20260905173025 31 154 12.9 24.1 0.00 0.00 0.00 44 1011.6
20260905172525 31 197 9.7 24.1 0.00 0.00 0.00 44 1011.7
20260905172025 31 227 12.9 24.1 0.00 0.00 0.00 44 1011.8
20260905171532 31 191 8.0 16.1 0.00 0.00 0.00 44 1011.7
20260905171024 31 238 6.4 20.9 0.00 0.00 0.00 44 1011.7
20260905170523 31 201 12.9 20.9 0.00 0.00 0.00 44 1011.8
20260905170022 31 177 4.8 16.1 0.00 0.00 0.00 46 1011.8
20260905165525 31 150 11.3 17.7 0.00 0.00 0.00 46 1011.9
20260905165020 30 186 9.7 17.7 0.00 0.00 0.00 46 1011.9
20260905164519 30 179 9.7 17.7 0.00 0.00 0.00 47 1011.9
20260905164119 30 184 6.4 19.3 0.00 0.00 0.00 47 1011.8
20260905163519 30 185 8.0 19.3 0.00 0.00 0.00 47 1011.9
20260905163019 30 140 6.4 17.7 0.00 0.00 0.00 47 1011.9
20260905162517 30 182 9.7 17.7 0.00 0.00 0.00 47 1011.9
20260905162020 29 187 8.0 16.1 0.00 0.00 0.00 48 1011.9
20260905161523 29 210 6.4 19.3 0.00 0.00 0.00 49 1012.0
20260905161016 29 238 12.9 19.3 0.00 0.00 0.00 49 1012.0
20260905160517 29 139 6.4 17.7 0.00 0.00 0.00 50 1012.0
20260905160016 28 198 9.7 17.7 0.00 0.00 0.00 51 1012.1
20260905155513 28 212 9.7 17.7 0.00 0.00 0.00 51 1012.1
20260905155011 28 162 9.7 17.7 0.00 0.00 0.00 52 1012.1
20260905154510 28 214 11.3 19.3 0.00 0.00 0.00 52 1012.1
20260905154109 28 196 6.4 17.7 0.00 0.00 0.00 52 1012.1
20260905153509 28 218 8.0 19.3 0.00 0.00 0.00 52 1012.0
20260905153007 28 206 6.4 19.3 0.00 0.00 0.00 53 1012.1
20260905152507 27 200 6.4 17.7 0.00 0.00 0.00 54 1012.1
20260905152006 27 219 12.9 17.7 0.00 0.00 0.00 54 1012.1
20260905151506 27 194 11.3 20.9 0.00 0.00 0.00 54 1012.1
20260905151005 27 241 11.3 20.9 0.00 0.00 0.00 55 1012.1
20260905150506 27 199 9.7 17.7 0.00 0.00 0.00 55 1012.1
20260905150005 27 160 6.4 16.1 0.00 0.00 0.00 55 1012.2
20260905145506 27 214 9.7 16.1 0.00 0.00 0.00 55 1012.2
20260905145005 27 157 8.0 17.7 0.00 0.00 0.00 56 1012.2
20260905144504 26 169 9.7 20.9 0.00 0.00 0.00 56 1012.3
20260905144105 26 202 8.0 19.3 0.00 0.00 0.00 56 1012.3
20260905143506 26 198 8.0 19.3 0.00 0.00 0.00 56 1012.2
20260905143007 26 171 9.7 19.3 0.00 0.00 0.00 57 1012.3
20260905142508 26 199 9.7 22.5 0.00 0.00 0.00 58 1012.3
20260905142005 26 189 12.9 22.5 0.00 0.00 0.00 57 1012.2
20260905141511 26 176 8.0 22.5 0.00 0.00 0.00 58 1012.2
20260905141004 26 193 12.9 22.5 0.00 0.00 0.00 58 1012.1
20260905140507 26 199 9.7 20.9 0.00 0.00 0.00 58 1012.0
20260905140009 26 183 11.3 20.9 0.00 0.00 0.00 57 1012.1
20260905135504 26 195 9.7 16.1 0.00 0.00 0.00 57 1012.0
20260905135002 25 193 6.4 14.5 0.00 0.00 0.00 57 1011.9
20260905134501 25 181 8.0 14.5 0.00 0.00 0.00 58 1011.9
20260905134101 25 127 6.4 12.9 0.00 0.00 0.00 58 1011.9
20260905133059 25 171 4.8 11.3 0.00 0.00 0.00 58 1011.7
20260905132600 25 159 4.8 12.9 0.00 0.00 0.00 58 1011.6
20260905132059 25 182 3.2 11.3 0.00 0.00 0.00 59 1011.7
20260905131558 25 188 4.8 11.3 0.00 0.00 0.00 59 1011.7
20260905131057 25 168 3.2 8.0 0.00 0.00 0.00 59 1011.5
20260905130557 25 167 4.8 8.0 0.00 0.00 0.00 59 1011.4
20260905130056 25 166 3.2 9.7 0.00 0.00 0.00 59 1011.3
20260905125555 25 175 4.8 9.7 0.00 0.00 0.00 59 1011.3
20260905125055 25 175 1.6 9.7 0.00 0.00 0.00 59 1011.3
20260905124557 25 175 3.2 9.7 0.00 0.00 0.00 59 1011.2
20260905124054 25 173 3.2 6.4 0.00 0.00 0.00 59 1011.2
20260905123053 25 173 3.2 6.4 0.00 0.00 0.00 59 1011.1
20260905122552 25 173 1.6 6.4 0.00 0.00 0.00 59 1011.0
20260905122054 25 173 4.8 9.7 0.00 0.00 0.00 59 1010.9
20260905121553 25 173 4.8 9.7 0.00 0.00 0.00 59 1010.8
20260905121053 25 174 4.8 9.7 0.00 0.00 0.00 59 1010.8
20260905120550 25 180 4.8 12.9 0.00 0.00 0.00 58 1010.8
20260905120100 25 183 4.8 12.9 0.00 0.00 0.00 58 1010.8
20260905115549 25 184 6.4 11.3 0.00 0.00 0.00 58 1010.8
20260905115051 25 180 4.8 11.3 0.00 0.00 0.00 58 1010.7
20260905114601 25 175 6.4 11.3 0.00 0.00 0.00 58 1010.8
20260905114049 25 170 3.2 11.3 0.00 0.00 0.00 57 1010.8
20260905113056 25 170 4.8 11.3 0.00 0.00 0.00 57 1010.7
20260905112549 25 185 4.8 9.7 0.00 0.00 0.00 57 1010.7
20260905112049 25 186 6.4 9.7 0.00 0.00 0.00 57 1010.7
20260905111634 25 188 6.4 9.7 0.00 0.00 0.00 57 1010.6
20260905111048 25 190 6.4 9.7 0.00 0.00 0.00 56 1010.5
20260905110547 25 165 4.8 8.0 0.00 0.00 0.00 56 1010.6
20260905110047 25 164 3.2 8.0 0.00 0.00 0.00 56 1010.6
20260905105547 25 164 3.2 8.0 0.00 0.00 0.00 56 1010.5
20260905105047 25 164 1.6 8.0 0.00 0.00 0.00 56 1010.4
20260905104548 25 164 1.6 6.4 0.00 0.00 0.00 56 1010.3
20260905104046 25 164 3.2 6.4 0.00 0.00 0.00 55 1010.3
20260905103046 25 164 3.2 6.4 0.00 0.00 0.00 55 1010.4
20260905102549 25 164 1.6 6.4 0.00 0.00 0.00 55 1010.3
20260905102044 25 164 1.6 6.4 0.00 0.00 0.00 54 1010.5
20260905101544 25 164 1.6 6.4 0.00 0.00 0.00 54 1010.4
20260905101043 26 164 3.2 6.4 0.00 0.00 0.00 54 1010.4
20260905100542 26 164 3.2 8.0 0.00 0.00 0.00 54 1010.4
20260905100041 26 164 3.2 9.7 0.00 0.00 0.00 54 1010.3
20260905095540 26 164 4.8 9.7 0.00 0.00 0.00 53 1010.3
20260905095040 26 165 3.2 11.3 0.00 0.00 0.00 53 1010.3
20260905094539 26 164 6.4 14.5 0.00 0.00 0.00 53 1010.3
20260905094042 26 162 6.4 16.1 0.00 0.00 0.00 52 1010.3
20260905093042 26 184 6.4 14.5 0.00 0.00 0.00 52 1010.2
20260905092539 26 158 8.0 19.3 0.00 0.00 0.00 52 1010.1
20260905092038 26 193 8.0 14.5 0.00 0.00 0.00 52 1010.1
20260905091537 26 171 8.0 14.5 0.00 0.00 0.00 51 1010.1
20260905091037 26 171 6.4 14.5 0.00 0.00 0.00 51 1010.1
20260905090539 26 183 6.4 17.7 0.00 0.00 0.00 51 1010.0
20260905090037 26 164 9.7 17.7 0.00 0.00 0.00 51 1010.0
20260905085537 27 190 8.0 14.5 0.00 0.00 0.00 51 1010.2
20260905085036 27 187 6.4 14.5 0.00 0.00 0.00 51 1010.3
20260905084538 27 179 6.4 16.1 0.00 0.00 0.00 51 1010.3
20260905084037 27 206 6.4 12.9 0.00 0.00 0.00 51 1010.3
20260905083036 27 160 4.8 12.9 0.00 0.00 0.00 51 1010.3
20260905082536 27 166 4.8 12.9 0.00 0.00 0.00 51 1010.4
20260905082036 26 193 4.8 9.7 0.00 0.00 0.00 51 1010.5
20260905081536 26 187 4.8 9.7 0.00 0.00 0.00 51 1010.4
20260905081035 26 193 3.2 9.7 0.00 0.00 0.00 51 1010.5
20260905080535 26 198 4.8 12.9 0.00 0.00 0.00 51 1010.5
20260905080037 27 200 4.8 12.9 0.00 0.00 0.00 51 1010.4
20260905075536 27 187 4.8 19.3 0.00 0.00 0.00 51 1010.4
20260905075034 27 180 4.8 19.3 0.00 0.00 0.00 51 1010.4
20260905074534 27 165 3.2 9.7 0.00 0.00 0.00 51 1010.4
20260905074035 27 163 4.8 9.7 0.00 0.00 0.00 51 1010.6